BMCB-14 Weather Reports


time (UTC)temp
C
wind
direction
speed
KPH
gust
KPH
rain 1hr
cm
rain 24hr
cm
rain mn
cm
humidity
%
barometer
mb
20260505222046 8 0 0.0 0.0 0.18 0.76 0.08 10 1009.7
20260505221049 8 0 0.0 0.0 0.20 0.74 0.05 10 1009.7
20260505220046 8 0 0.0 0.0 0.20 0.71 0.05 10 1009.8
20260505215051 8 0 0.0 0.0 0.20 0.69 0.69 10 1009.9
20260505214051 8 0 0.0 0.0 0.18 0.64 0.64 10 1009.9
20260505211050 8 0 0.0 0.0 0.18 0.58 0.58 10 1010.0
20260505210050 8 0 0.0 0.0 0.15 0.53 0.53 10 1010.0
20260505205048 8 0 0.0 0.0 0.15 0.51 0.51 10 1010.0
20260505203048 8 0 0.0 0.0 0.15 0.46 0.46 10 1010.0
20260505202049 8 0 0.0 0.0 0.15 0.43 0.43 10 1010.0
20260505201054 9 0 0.0 0.0 0.15 0.43 0.43 10 1009.9
20260505195047 8 0 0.0 0.0 0.15 0.38 0.38 10 1009.9
20260505194050 8 0 0.0 0.0 0.18 0.36 0.36 10 1009.8
20260505193050 8 0 0.0 0.0 0.18 0.33 0.33 10 1009.7
20260505192048 9 0 0.0 0.0 0.15 0.33 0.33 10 1009.7
20260505191050 9 0 0.0 0.0 0.15 0.28 0.28 10 1009.7
20260505190050 9 0 0.0 0.0 0.15 0.25 0.25 10 1009.7
20260505185050 9 0 0.0 0.0 0.15 0.23 0.23 10 1009.6
20260505184048 9 0 0.0 0.0 0.15 0.23 0.23 10 1009.6
20260505182048 9 0 0.0 0.0 0.10 0.15 0.15 10 1009.6
20260505181048 9 0 0.0 0.0 0.10 0.15 0.15 10 1009.6
20260505180048 10 0 0.0 0.0 0.10 0.15 0.15 10 1009.7
20260505175047 10 0 0.0 0.0 0.08 0.13 0.13 10 1009.7
20260505173048 10 0 0.0 0.0 0.05 0.08 0.08 10 1009.7
20260505172046 10 0 0.0 0.0 0.05 0.05 0.05 10 1009.7
20260505171046 10 0 0.0 0.0 0.05 0.05 0.05 10 1009.7
20260505165053 10 0 0.0 0.0 0.03 0.05 0.05 10 1009.8
20260505163050 10 0 0.0 0.0 0.03 0.05 0.05 10 1009.8
20260505162046 10 0 0.0 0.0 0.00 0.05 0.03 10 1009.8
20260505153048 10 0 0.0 0.0 0.00 0.05 0.03 10 1009.9
20260505152047 10 0 0.0 0.0 0.00 0.05 0.03 10 1009.9
20260505151044 10 0 0.0 0.0 0.00 0.05 0.03 10 1010.0
20260505124047 11 0 0.0 0.0 0.00 0.18 0.00 10 1010.6
20260505123045 11 0 0.0 0.0 0.00 0.18 0.00 10 1010.6
20260505121044 11 0 0.0 0.0 0.00 0.18 0.00 10 1010.6
20260505120045 11 0 0.0 0.0 0.00 0.18 0.00 10 1010.6
20260505114048 11 0 0.0 0.0 0.00 0.18 0.00 10 1010.7
20260505113047 11 0 0.0 0.0 0.00 0.18 0.00 10 1010.7
20260505112046 11 0 0.0 0.0 0.00 0.18 0.00 99 1010.7
20260505111046 12 0 0.0 0.0 0.00 0.18 0.00 99 1010.8
20260505102057 12 0 0.0 0.0 0.00 0.18 0.00 99 1011.0
20260505100044 12 0 0.0 0.0 0.00 0.18 0.00 99 1011.0
20260505095046 12 0 0.0 0.0 0.00 0.18 0.00 98 1011.0
20260505094044 12 0 0.0 0.0 0.00 0.18 0.00 97 1011.0
20260505093047 13 0 0.0 0.0 0.00 0.18 0.00 93 1010.9
20260505092044 13 0 0.0 0.0 0.00 0.18 0.00 92 1010.9
20260505091047 13 0 0.0 0.0 0.00 0.18 0.00 91 1010.9
20260505090047 13 0 0.0 0.0 0.00 0.18 0.00 92 1010.9
20260505085045 13 0 0.0 0.0 0.00 0.18 0.00 92 1010.9
20260505084047 13 0 0.0 0.0 0.00 0.18 0.00 92 1011.0
20260505082048 13 0 0.0 0.0 0.00 0.18 0.00 93 1011.0
20260505080044 12 0 0.0 0.0 0.00 0.18 0.00 94 1011.1
20260505074046 12 0 0.0 0.0 0.00 0.18 0.00 96 1011.2
20260505073045 12 0 0.0 0.0 0.00 0.18 0.00 98 1011.2
20260505072045 12 0 0.0 0.0 0.00 0.18 0.00 10 1011.3
20260505071046 11 0 0.0 0.0 0.00 0.18 0.00 10 1011.4
20260505070042 11 0 0.0 0.0 0.00 0.18 0.00 10 1011.4
20260505065046 11 0 0.0 0.0 0.00 0.18 0.00 10 1011.6
20260505064043 11 0 0.0 0.0 0.00 0.18 0.00 10 1011.6
20260505063043 11 0 0.0 0.0 0.00 0.18 0.00 10 1011.6
20260505061044 11 0 0.0 0.0 0.00 0.18 0.00 10 1011.6
20260505060046 11 0 0.0 0.0 0.00 0.18 0.00 10 1011.7
20260505055045 10 0 0.0 0.0 0.00 0.18 0.00 10 1011.7
20260505054046 10 0 0.0 0.0 0.00 0.18 0.00 10 1011.8
20260505053045 10 0 0.0 0.0 0.00 0.18 0.00 10 1011.8
20260505052045 10 0 0.0 0.0 0.00 0.18 0.00 10 1011.7
20260505051049 10 0 0.0 0.0 0.00 0.18 0.00 10 1011.7
20260505041045 10 0 0.0 0.0 0.00 0.18 0.00 10 1011.7
20260505040045 10 0 0.0 0.0 0.00 0.18 0.00 10 1011.7
20260505034045 10 0 0.0 0.0 0.00 0.18 0.00 10 1011.9
20260505033048 10 0 0.0 0.0 0.00 0.18 0.00 10 1012.0
20260505032046 10 0 0.0 0.0 0.00 0.18 0.00 10 1012.1
20260505031046 10 0 0.0 0.0 0.00 0.18 0.00 10 1012.3
20260505030045 10 0 0.0 0.0 0.00 0.18 0.00 10 1012.3
20260505024047 10 0 0.0 0.0 0.00 0.18 0.00 10 1012.4
20260505023047 10 0 0.0 0.0 0.00 0.18 0.00 10 1012.4
20260505022045 10 0 0.0 0.0 0.00 0.18 0.00 10 1012.5
20260505021047 10 0 0.0 0.0 0.00 0.18 0.00 10 1012.6
20260505020047 10 0 0.0 0.0 0.00 0.18 0.00 10 1012.6
20260505015047 10 0 0.0 0.0 0.00 0.18 0.00 10 1012.6
20260505014046 10 0 0.0 0.0 0.00 0.18 0.00 10 1012.5
20260505012045 10 0 0.0 0.0 0.00 0.18 0.00 10 1012.5
20260505011045 10 0 0.0 0.0 0.00 0.18 0.00 10 1012.4
20260505010047 10 0 0.0 0.0 0.00 0.18 0.00 10 1012.6
20260505005047 10 0 0.0 0.0 0.00 0.18 0.00 10 1012.7
20260505004047 10 0 0.0 0.0 0.00 0.18 0.00 10 1012.8
20260505003045 11 0 0.0 0.0 0.00 0.18 0.00 10 1012.9
20260505001047 10 0 0.0 0.0 0.00 0.18 0.00 10 1013.1
20260505000046 10 0 0.0 0.0 0.00 0.18 0.00 10 1013.1
20260504235048 11 0 0.0 0.0 0.00 0.18 0.00 99 1013.1
20260504234048 11 0 0.0 0.0 0.00 0.18 0.00 99 1013.2
20260504233046 11 0 0.0 0.0 0.00 0.18 0.00 99 1013.3
20260504232047 11 0 0.0 0.0 0.00 0.18 0.00 99 1013.3
20260504231050 11 0 0.0 0.0 0.00 0.18 0.00 99 1013.5
20260504224049 11 0 0.0 0.0 0.00 0.18 0.00 98 1013.7
20260504223047 11 0 0.0 0.0 0.00 0.18 0.00 98 1013.8